EDT,Max TemperatureF,Mean TemperatureF,Min TemperatureF,Max Dew PointF,MeanDew PointF,Min DewpointF,Max Humidity, Mean Humidity, Min Humidity, Max Sea Level PressureIn, Mean Sea Level PressureIn, Min Sea Level PressureIn, Max VisibilityMiles, Mean VisibilityMiles, Min VisibilityMiles, Max Wind SpeedMPH, Mean Wind SpeedMPH, Max Gust SpeedMPH,PrecipitationIn, CloudCover, Events, WindDirDegrees
2012-4-1,82,71,60,64,60,53,100,80,37,29.90,29.83,29.78,10,7,0,9,4,,0.01,0,Fog,234
2012-4-2,91,78,66,66,60,56,87,60,32,29.89,29.81,29.76,10,10,5,18,10,24,0.09,1,Rain,281
2012-4-3,78,72,68,70,67,64,90,82,74,29.99,29.93,29.90,10,8,5,15,8,18,0.01,6,Thunderstorm,118
2012-4-4,87,74,63,66,63,59,93,73,41,29.91,29.82,29.71,10,9,3,9,4,16,0.04,2,Fog-Thunderstorm,275
2012-4-5,87,75,64,66,62,59,90,75,41,29.75,29.71,29.63,10,9,0,26,8,44,0.04,4,Fog-Rain-Thunderstorm,259
2012-4-6,66,56,46,64,53,41,96,83,53,30.09,29.83,29.68,10,8,2,18,8,25,0.11,6,Rain,8
2012-4-7,71,58,45,45,40,31,93,59,27,30.27,30.19,30.10,10,10,10,9,3,,0.00,0,,138
2012-4-8,78,62,48,53,48,44,83,58,31,30.22,30.13,30.05,10,9,5,14,6,20,0.00,0,,244
2012-4-9,78,67,57,57,48,40,81,54,31,30.12,30.04,29.98,10,10,10,15,8,,0.00,0,,226
2012-4-10,80,68,55,58,48,36,84,54,24,30.08,29.99,29.92,10,10,10,12,7,,0.00,0,,257
2012-4-11,72,61,50,49,37,25,74,45,17,30.06,29.99,29.93,10,10,10,18,8,24,0.00,0,,316
2012-4-12,68,55,44,45,35,28,83,49,29,30.25,30.18,30.07,10,10,10,22,11,29,0.00,0,,61
2012-4-13,73,60,46,49,43,32,100,66,25,30.28,30.21,30.16,10,8,0,15,2,21,0.00,1,Fog,83
2012-4-14,77,62,48,61,53,45,96,73,40,30.33,30.28,30.25,10,9,1,10,3,18,0.00,1,,153
2012-4-15,80,70,64,62,60,59,84,76,59,30.27,30.24,30.22,10,10,10,10,4,20,0.01,2,,188
2012-4-16,82,70,60,63,60,55,90,69,45,30.27,30.21,30.18,10,10,10,12,5,,0.00,1,,197
2012-4-17,84,72,60,64,61,56,100,76,41,30.22,30.17,30.09,10,7,0,12,4,17,0.01,2,Fog,202
2012-4-18,80,70,60,67,63,57,100,85,66,30.12,30.05,29.99,10,8,0,12,3,16,0.03,4,Fog-Rain,149
2012-4-19,75,68,62,63,62,60,94,83,66,30.04,30.00,29.95,10,8,4,13,7,,0.07,8,Rain,52
2012-4-20,77,68,62,65,62,59,96,79,62,29.99,29.93,29.86,10,8,3,9,6,,0.00,6,,88
2012-4-21,82,74,66,68,66,62,94,82,54,29.88,29.79,29.67,10,8,1,9,3,,0.00,6,,139
2012-4-22,73,66,60,66,62,50,94,82,67,29.66,29.53,29.46,10,9,2,14,7,26,0.11,7,Rain,341
2012-4-23,64,56,48,48,37,32,72,49,31,29.84,29.71,29.64,10,10,10,22,12,30,0.00,4,,300
2012-4-24,71,58,45,40,33,30,61,41,24,29.94,29.88,29.83,10,10,10,21,11,33,0.00,1,,289
2012-4-25,84,66,50,61,49,39,77,55,27,30.03,29.97,29.91,10,10,10,15,7,24,0.00,1,,232
2012-4-26,89,76,64,63,54,48,73,52,25,30.01,29.97,29.91,10,10,10,22,11,30,0.00,1,,244
2012-4-27,90,76,64,65,60,55,81,61,37,30.08,30.03,29.98,10,10,10,13,10,21,0.00,0,,232
2012-4-28,89,76,64,66,62,57,84,66,40,30.12,30.08,30.04,10,10,10,8,5,,0.00,0,,192
2012-4-29,88,74,60,69,65,60,100,80,49,30.16,30.13,30.09,10,7,0,9,2,,0.00,0,Fog,189
2012-4-30,84,73,64,68,65,63,100,85,52,30.22,30.16,30.14,10,5,0,13,1,18,0.00,2,Fog,136